Location: Ponte Samoggia
(44.5667°N, 11.1333°E)
Time: 23:24:41
(UTC+00:00)

AQUA - Pass Details

Date: 26 May 2022
Orbit: 701 x 703 km, 98.2° (Epoch: 26 June)

Event Time Altitude Azimuth Distance (km) Brightness Sun altitude
Rises 01:12:36 0° 14° (NNE) 3,101 8.6 -18.8°
Reaches altitude 10° 01:14:52 10° 16° (NNE) 2,178 7.5 -18.6°
Maximum altitude 01:19:39 78° 103° (ESE) 722 3.8 -18.2°
Enters shadow 01:21:55 31° 186° (S) 1,216 4.5 -18.0°
